AFR16 GOBD-LFPG

Flight info

Callsign AFR16
Flight time 2h 24m
Altitude 39000
Route BIKIS1B BIKIS UB601 KETAS DCT ZRT/N0481F410 UR975 ECHED/N0478F400 DCT ADUBI DCT VJF DCT GOXIP DCT LUSEM DCT CNA DCT POI DCT PEPAX DCT ROMGO
Aircraft A359/H-SDE2E3GHIJ3J4J5LM1ORWXY/LB1D1

Departure

Time 2026-05-01 07:23
Airport Blaise Diagne International Airport (GOBD)

Arrival

Time 2026-05-01 09:47
Airport Charles de Gaulle International Airport (LFPG)
Time Latitude Longitude Altitude Speed Heading
2026-05-01 07:23 14.66230 -17.07273 269 ft 103 kts 360°
2026-05-01 07:23 14.68192 -17.07229 967 ft 152 kts
2026-05-01 07:24 14.69258 -17.07181 1609 ft 154 kts
2026-05-01 07:24 14.70410 -17.07165 1856 ft 180 kts
2026-05-01 07:24 14.71740 -17.07211 2167 ft 201 kts 359°
2026-05-01 07:24 14.73219 -17.07272 2459 ft 224 kts 360°
2026-05-01 07:25 14.74853 -17.07317 2848 ft 242 kts
2026-05-01 07:25 14.76567 -17.07349 3483 ft 250 kts
2026-05-01 07:25 14.78339 -17.07375 4099 ft 258 kts
2026-05-01 07:25 14.80170 -17.07397 4678 ft 267 kts
2026-05-01 07:26 14.82043 -17.07418 5314 ft 272 kts
2026-05-01 07:26 14.83964 -17.07440 5909 ft 280 kts
2026-05-01 07:26 14.85265 -17.07453 6309 ft 285 kts
2026-05-01 07:26 14.88448 -17.07481 7322 ft 292 kts
2026-05-01 07:27 14.90496 -17.07500 8006 ft 296 kts
2026-05-01 07:27 14.92571 -17.07520 8718 ft 301 kts
2026-05-01 07:27 14.94680 -17.07540 9428 ft 306 kts
2026-05-01 07:27 14.96827 -17.07560 10134 ft 311 kts
2026-05-01 07:28 14.99047 -17.07578 10517 ft 329 kts
2026-05-01 07:28 15.01402 -17.07598 10821 ft 348 kts
2026-05-01 07:28 15.03885 -17.07620 11113 ft 365 kts
2026-05-01 07:28 15.06476 -17.07645 11424 ft 380 kts
2026-05-01 07:29 15.09152 -17.07672 11941 ft 386 kts
2026-05-01 07:29 15.11853 -17.07699 12542 ft 390 kts
2026-05-01 07:29 15.14582 -17.07726 13162 ft 394 kts
2026-05-01 07:29 15.17341 -17.07753 13772 ft 398 kts
2026-05-01 07:30 15.20124 -17.07780 14341 ft 401 kts
2026-05-01 07:30 15.22889 -17.07807 14891 ft 403 kts
2026-05-01 07:30 15.25711 -17.07834 15433 ft 407 kts
2026-05-01 07:30 15.28550 -17.07861 15976 ft 409 kts 360°
2026-05-01 07:31 15.31407 -17.07883 16511 ft 412 kts
2026-05-01 07:31 15.38956 -17.06395 17816 ft 422 kts 17°
2026-05-01 07:32 15.45538 -17.04301 18951 ft 426 kts 17°
2026-05-01 07:32 15.47419 -17.03705 19284 ft 426 kts 17°
2026-05-01 07:33 15.53109 -17.01907 20242 ft 429 kts 16°
2026-05-01 07:33 15.55972 -17.01003 20758 ft 431 kts 16°
2026-05-01 07:33 15.61731 -16.99185 21731 ft 434 kts 16°
2026-05-01 07:34 15.64630 -16.98269 22182 ft 436 kts 16°
2026-05-01 07:34 15.72632 -16.95742 23386 ft 443 kts 15°
2026-05-01 07:34 15.78555 -16.93871 24120 ft 448 kts 15°
2026-05-01 07:35 15.84556 -16.91972 24832 ft 453 kts 15°
2026-05-01 07:35 15.90623 -16.90051 25628 ft 459 kts 15°
2026-05-01 07:35 15.96708 -16.88124 26456 ft 464 kts 15°
2026-05-01 07:35 16.02933 -16.86152 27307 ft 470 kts 14°
2026-05-01 07:36 16.09234 -16.84154 28132 ft 476 kts 14°
2026-05-01 07:36 16.15606 -16.82132 28942 ft 482 kts 14°
2026-05-01 07:36 16.22067 -16.80081 29710 ft 488 kts 14°
2026-05-01 07:36 16.28565 -16.77883 30380 ft 495 kts 18°
2026-05-01 07:37 16.41377 -16.72129 31507 ft 507 kts 21°
2026-05-01 07:37 16.47857 -16.69134 32039 ft 511 kts 21°
2026-05-01 07:37 16.54402 -16.66134 32535 ft 516 kts 20°
2026-05-01 07:38 16.60971 -16.63133 33231 ft 515 kts 20°
2026-05-01 07:38 16.67540 -16.60131 33918 ft 515 kts 20°
2026-05-01 07:38 16.80672 -16.54123 34996 ft 515 kts 20°
2026-05-01 07:39 16.87233 -16.51117 35568 ft 514 kts 20°
2026-05-01 07:39 16.93780 -16.48116 36100 ft 514 kts 20°
2026-05-01 07:39 17.06879 -16.42103 37111 ft 514 kts 20°
2026-05-01 07:40 17.13426 -16.39095 37556 ft 514 kts 20°
2026-05-01 07:40 17.19971 -16.36085 38019 ft 513 kts 20°
2026-05-01 07:40 17.26501 -16.33080 38467 ft 513 kts 20°
2026-05-01 07:40 17.33033 -16.30072 38827 ft 512 kts 20°
2026-05-01 07:41 17.39468 -16.27106 38978 ft 512 kts 20°
2026-05-01 07:41 17.45982 -16.24101 38979 ft 511 kts 20°
2026-05-01 07:42 17.65508 -16.15080 38974 ft 511 kts 20°
2026-05-01 07:42 17.78549 -16.09043 38976 ft 512 kts 20°
2026-05-01 07:43 17.91584 -16.03000 38971 ft 512 kts 20°
2026-05-01 07:43 18.10959 -15.93456 38985 ft 516 kts 29°
2026-05-01 07:44 18.34674 -15.76422 38971 ft 518 kts 31°
2026-05-01 07:45 18.46551 -15.67827 38969 ft 518 kts 31°
2026-05-01 07:45 18.58467 -15.59190 38964 ft 519 kts 31°
2026-05-01 07:46 18.70353 -15.50559 38970 ft 519 kts 31°
2026-05-01 07:47 18.88190 -15.37578 38976 ft 520 kts 31°
2026-05-01 07:47 19.00117 -15.28880 38975 ft 520 kts 31°
2026-05-01 07:48 19.17986 -15.15818 38981 ft 521 kts 31°
2026-05-01 07:48 19.29928 -15.07070 38978 ft 522 kts 31°
2026-05-01 07:49 19.47758 -14.93978 38992 ft 522 kts 31°
2026-05-01 07:50 19.59715 -14.85179 38986 ft 523 kts 31°
2026-05-01 07:50 19.77660 -14.71942 38993 ft 523 kts 31°
2026-05-01 07:51 19.89609 -14.63108 38999 ft 524 kts 30°
2026-05-01 07:52 20.07559 -14.49806 38999 ft 524 kts 30°
2026-05-01 07:52 20.19523 -14.40918 39002 ft 524 kts 31°
2026-05-01 07:53 20.37474 -14.27552 39004 ft 525 kts 30°
2026-05-01 07:53 20.49434 -14.18625 39010 ft 525 kts 30°
2026-05-01 07:55 20.78805 -13.96627 39016 ft 526 kts 30°
2026-05-01 07:56 21.08739 -13.74099 39023 ft 526 kts 30°
2026-05-01 07:57 21.26670 -13.60550 39033 ft 526 kts 30°
2026-05-01 07:58 21.50580 -13.42418 39034 ft 525 kts 30°
2026-05-01 07:59 21.74440 -13.24250 39041 ft 525 kts 30°
2026-05-01 08:00 22.10094 -12.96961 39344 ft 525 kts 30°
2026-05-01 08:01 22.27913 -12.83256 40273 ft 523 kts 30°
2026-05-01 08:01 22.33841 -12.78688 40542 ft 523 kts 30°
2026-05-01 08:01 22.39757 -12.74123 40801 ft 523 kts 30°
2026-05-01 08:02 22.51588 -12.64982 41075 ft 522 kts 30°
2026-05-01 08:03 22.79796 -12.44779 41083 ft 508 kts 14°
2026-05-01 08:03 23.19713 -12.30166 41093 ft 506 kts 12°
2026-05-01 08:04 23.73207 -12.10499 41102 ft 507 kts 11°
2026-05-01 08:05 24.13306 -11.95646 41107 ft 507 kts 11°
2026-05-01 08:06 24.53360 -11.80711 41103 ft 506 kts 11°
2026-05-01 08:07 25.06853 -11.60607 41120 ft 509 kts 11°
2026-05-01 08:08 25.46731 -11.44645 41135 ft 511 kts 12°
2026-05-01 08:09 26.00007 -11.22473 41148 ft 511 kts 13°
2026-05-01 08:09 26.26637 -11.11310 41149 ft 511 kts 13°
2026-05-01 08:10 26.79767 -10.88869 41112 ft 509 kts 13°
2026-05-01 08:11 27.32726 -10.66276 41083 ft 508 kts 14°
2026-05-01 08:12 27.72351 -10.49116 41090 ft 510 kts 16°
2026-05-01 08:13 28.11623 -10.30549 41075 ft 509 kts 16°
2026-05-01 08:13 28.50681 -10.12040 41071 ft 509 kts 17°
2026-05-01 08:14 28.76764 -9.99592 41079 ft 508 kts 17°
2026-05-01 08:14 29.02776 -9.87114 41096 ft 507 kts 17°
2026-05-01 08:15 29.41726 -9.68301 41088 ft 506 kts 18°
2026-05-01 08:16 29.67592 -9.55719 41100 ft 504 kts 18°
2026-05-01 08:16 29.93518 -9.43039 41094 ft 504 kts 18°
2026-05-01 08:17 30.19196 -9.30409 41103 ft 506 kts 18°
2026-05-01 08:17 30.45099 -9.17593 41105 ft 506 kts 18°
2026-05-01 08:18 30.70955 -9.04726 41103 ft 505 kts 18°
2026-05-01 08:19 31.22585 -8.78806 41144 ft 504 kts 18°
2026-05-01 08:19 31.48319 -8.65774 41136 ft 503 kts 18°
2026-05-01 08:20 31.73971 -8.52704 41132 ft 503 kts 18°
2026-05-01 08:20 31.99672 -8.39528 41137 ft 503 kts 18°
2026-05-01 08:21 32.25334 -8.26291 41143 ft 503 kts 18°
2026-05-01 08:21 32.51010 -8.12965 41145 ft 505 kts 18°
2026-05-01 08:22 32.76575 -7.99614 41146 ft 506 kts 18°
2026-05-01 08:22 33.02356 -7.86064 41150 ft 507 kts 18°
2026-05-01 08:23 33.28190 -7.72399 41158 ft 507 kts 18°
2026-05-01 08:23 33.54003 -7.58655 41130 ft 508 kts 18°
2026-05-01 08:24 33.79830 -7.44813 41150 ft 508 kts 18°
2026-05-01 08:24 34.05621 -7.30900 41173 ft 508 kts 18°
2026-05-01 08:25 34.31417 -7.16888 41180 ft 507 kts 17°
2026-05-01 08:25 34.56982 -7.02911 41175 ft 507 kts 17°
2026-05-01 08:26 34.82837 -6.88677 41181 ft 506 kts 17°
2026-05-01 08:26 35.08285 -6.74570 41181 ft 505 kts 17°
2026-05-01 08:27 35.33819 -6.60319 41182 ft 504 kts 17°
2026-05-01 08:27 35.59298 -6.45999 41186 ft 503 kts 17°
2026-05-01 08:28 35.84565 -6.31224 41168 ft 510 kts 26°
2026-05-01 08:28 36.08023 -6.11267 41169 ft 513 kts 28°
2026-05-01 08:29 36.32035 -5.93239 41157 ft 496 kts 16°
2026-05-01 08:29 36.57292 -5.79939 41149 ft 496 kts 16°
2026-05-01 08:30 36.82651 -5.66427 41126 ft 495 kts 17°
2026-05-01 08:30 37.07985 -5.52837 41152 ft 495 kts 17°
2026-05-01 08:31 37.33296 -5.39158 41137 ft 496 kts 18°
2026-05-01 08:31 37.54375 -5.27688 41144 ft 495 kts 18°
2026-05-01 08:32 37.83882 -5.11514 41154 ft 495 kts 19°
2026-05-01 08:32 38.04858 -4.99929 41150 ft 494 kts 19°
2026-05-01 08:33 38.30087 -4.85900 41148 ft 495 kts 20°
2026-05-01 08:33 38.55331 -4.71754 41151 ft 495 kts 20°
2026-05-01 08:34 38.80599 -4.57486 41162 ft 496 kts 21°
2026-05-01 08:34 39.05891 -4.43098 41159 ft 497 kts 21°
2026-05-01 08:35 39.31146 -4.28602 41158 ft 497 kts 22°
2026-05-01 08:35 39.56391 -4.14003 41159 ft 496 kts 22°
2026-05-01 08:36 39.81564 -3.99330 41168 ft 496 kts 22°
2026-05-01 08:36 40.06720 -3.84546 41173 ft 496 kts 22°
2026-05-01 08:37 40.31756 -3.69714 41184 ft 493 kts 22°
2026-05-01 08:37 40.56733 -3.54795 41184 ft 493 kts 22°
2026-05-01 08:38 40.81556 -3.39846 41184 ft 493 kts 22°
2026-05-01 08:38 41.06503 -3.24698 41179 ft 494 kts 23°
2026-05-01 08:39 41.31516 -3.09381 41180 ft 495 kts 23°
2026-05-01 08:39 41.56494 -2.93955 41179 ft 495 kts 24°
2026-05-01 08:40 41.94015 -2.70534 41172 ft 496 kts 24°
2026-05-01 08:40 42.19023 -2.54752 41182 ft 496 kts 24°
2026-05-01 08:41 42.44049 -2.38820 41211 ft 498 kts 24°
2026-05-01 08:41 42.63228 -2.26514 41206 ft 500 kts 24°
2026-05-01 08:42 42.69533 -2.22452 41203 ft 502 kts 24°
2026-05-01 08:42 42.75848 -2.18372 41197 ft 502 kts 24°
2026-05-01 08:43 42.82157 -2.14286 41197 ft 502 kts 24°
2026-05-01 08:43 42.88474 -2.10186 41198 ft 503 kts 24°
2026-05-01 08:44 42.94781 -2.06085 41199 ft 502 kts 24°
2026-05-01 08:44 43.01046 -2.02000 41194 ft 502 kts 25°
2026-05-01 08:45 43.07327 -1.97897 41193 ft 498 kts 25°
2026-05-01 08:45 43.13578 -1.93802 41193 ft 498 kts 25°
2026-05-01 08:46 43.19818 -1.89707 41182 ft 498 kts 24°
2026-05-01 08:46 43.26076 -1.85591 41184 ft 498 kts 25°
2026-05-01 08:47 43.30392 -1.82745 41183 ft 497 kts 25°
2026-05-01 08:47 43.35831 -1.79153 41184 ft 497 kts 25°
2026-05-01 08:48 43.42080 -1.75110 41191 ft 496 kts 23°
2026-05-01 08:48 43.48394 -1.71253 41185 ft 496 kts 23°
2026-05-01 08:49 43.54711 -1.67400 41184 ft 496 kts 23°
2026-05-01 08:49 43.61021 -1.63506 41187 ft 496 kts 23°
2026-05-01 08:50 43.67323 -1.59588 41098 ft 496 kts 24°
2026-05-01 08:50 43.70470 -1.57627 40880 ft 496 kts 24°
2026-05-01 08:50 43.73620 -1.55661 40626 ft 497 kts 24°
2026-05-01 08:51 43.76774 -1.53691 40380 ft 497 kts 24°
2026-05-01 08:51 43.79921 -1.51723 40216 ft 497 kts 24°
2026-05-01 08:51 43.86224 -1.47776 40196 ft 497 kts 24°
2026-05-01 08:52 43.92476 -1.43852 40202 ft 496 kts 24°
2026-05-01 08:52 43.98777 -1.39888 40201 ft 496 kts 24°
2026-05-01 08:53 44.05065 -1.35923 40210 ft 496 kts 24°
2026-05-01 08:53 44.11349 -1.31951 40210 ft 496 kts 24°
2026-05-01 08:54 44.17633 -1.27970 40216 ft 496 kts 24°
2026-05-01 08:54 44.23919 -1.23978 40212 ft 496 kts 24°
2026-05-01 08:55 44.30196 -1.19983 40188 ft 496 kts 24°
2026-05-01 08:55 44.36475 -1.15976 40189 ft 496 kts 24°
2026-05-01 08:56 44.42752 -1.11962 40177 ft 496 kts 24°
2026-05-01 08:56 44.48980 -1.07969 40194 ft 496 kts 24°
2026-05-01 08:57 44.55249 -1.03941 40176 ft 496 kts 24°
2026-05-01 08:57 44.61518 -0.99903 40180 ft 495 kts 24°
2026-05-01 08:58 44.67781 -0.95859 40187 ft 494 kts 24°
2026-05-01 08:58 44.74026 -0.91817 40218 ft 494 kts 24°
2026-05-01 08:59 44.80272 -0.87766 40204 ft 494 kts 24°
2026-05-01 08:59 44.86518 -0.83703 40221 ft 494 kts 24°
2026-05-01 09:00 44.92761 -0.79634 40212 ft 495 kts 24°
2026-05-01 09:00 44.99006 -0.75553 40211 ft 495 kts 24°
2026-05-01 09:01 45.05244 -0.71466 40220 ft 493 kts 24°
2026-05-01 09:01 45.11458 -0.67386 40225 ft 492 kts 24°
2026-05-01 09:02 45.17669 -0.63298 40220 ft 492 kts 24°
2026-05-01 09:02 45.23845 -0.59224 40220 ft 493 kts 24°
2026-05-01 09:03 45.30066 -0.55110 40219 ft 493 kts 24°
2026-05-01 09:03 45.36289 -0.50984 40222 ft 493 kts 24°
2026-05-01 09:04 45.42511 -0.46849 40228 ft 493 kts 24°
2026-05-01 09:04 45.48724 -0.42710 40233 ft 493 kts 24°
2026-05-01 09:05 45.54935 -0.38562 40237 ft 493 kts 24°
2026-05-01 09:05 45.61145 -0.34405 40241 ft 492 kts 24°
2026-05-01 09:06 45.67346 -0.30245 40239 ft 492 kts 24°
2026-05-01 09:06 45.73578 -0.26165 40230 ft 492 kts 23°
2026-05-01 09:07 45.79769 -0.22156 40228 ft 492 kts 23°
2026-05-01 09:07 45.85992 -0.18105 40227 ft 491 kts 23°
2026-05-01 09:08 45.92205 -0.14034 40230 ft 491 kts 23°
2026-05-01 09:08 45.98420 -0.09949 40236 ft 491 kts 23°
2026-05-01 09:09 46.04634 -0.05852 40230 ft 491 kts 23°
2026-05-01 09:09 46.10839 -0.01753 40231 ft 491 kts 23°
2026-05-01 09:10 46.17042 0.02356 40243 ft 490 kts 23°
2026-05-01 09:10 46.23240 0.06470 40235 ft 490 kts 24°
2026-05-01 09:11 46.29437 0.10595 40235 ft 490 kts 24°
2026-05-01 09:11 46.35602 0.14708 40234 ft 490 kts 24°
2026-05-01 09:12 46.41790 0.18847 40238 ft 490 kts 24°
2026-05-01 09:12 46.47984 0.23001 40238 ft 490 kts 24°
2026-05-01 09:13 46.54170 0.27160 40238 ft 490 kts 24°
2026-05-01 09:13 46.60565 0.30463 40242 ft 487 kts 13°
2026-05-01 09:14 46.67182 0.32657 40241 ft 487 kts 11°
2026-05-01 09:14 46.73822 0.34676 40240 ft 487 kts 11°
2026-05-01 09:15 46.80420 0.36672 40240 ft 487 kts 11°
2026-05-01 09:15 46.87058 0.38706 40240 ft 487 kts 11°
2026-05-01 09:16 46.93692 0.40756 40238 ft 487 kts 11°
2026-05-01 09:17 47.03659 0.43850 40237 ft 488 kts 11°
2026-05-01 09:17 47.13648 0.46921 40229 ft 489 kts 11°
2026-05-01 09:18 47.23641 0.49941 40238 ft 489 kts 11°
2026-05-01 09:19 47.32520 0.52642 40033 ft 489 kts 11°
2026-05-01 09:19 47.35854 0.53659 39447 ft 488 kts 11°
2026-05-01 09:20 47.42508 0.55691 38019 ft 488 kts 11°
2026-05-01 09:20 47.49147 0.57724 36658 ft 487 kts 12°
2026-05-01 09:21 47.55785 0.59764 35241 ft 488 kts 12°
2026-05-01 09:21 47.59117 0.60789 34454 ft 490 kts 12°
2026-05-01 09:21 47.65819 0.62855 32666 ft 493 kts 13°
2026-05-01 09:22 47.72519 0.64926 30893 ft 496 kts 14°
2026-05-01 09:22 47.79287 0.67024 29297 ft 492 kts 14°
2026-05-01 09:23 47.82623 0.68060 28653 ft 487 kts 14°
2026-05-01 09:23 47.89188 0.70103 27389 ft 477 kts 14°
2026-05-01 09:24 47.95628 0.72113 26136 ft 469 kts 14°
2026-05-01 09:24 47.98810 0.73108 25515 ft 465 kts 14°
2026-05-01 09:24 48.05101 0.75080 24296 ft 459 kts 14°
2026-05-01 09:25 48.11324 0.77034 22982 ft 453 kts 14°
2026-05-01 09:25 48.17445 0.78960 21758 ft 446 kts 14°
2026-05-01 09:26 48.20474 0.79915 21129 ft 442 kts 14°
2026-05-01 09:26 48.26451 0.81803 19912 ft 435 kts 14°
2026-05-01 09:26 48.29401 0.82739 19296 ft 433 kts 14°
2026-05-01 09:27 48.34719 0.86413 17969 ft 417 kts 46°
2026-05-01 09:27 48.36512 0.89743 17370 ft 405 kts 62°
2026-05-01 09:27 48.37863 0.93427 16775 ft 400 kts 65°
2026-05-01 09:28 48.39130 0.97130 16168 ft 397 kts 66°
2026-05-01 09:28 48.40387 1.00812 15580 ft 394 kts 66°
2026-05-01 09:28 48.41639 1.04463 15035 ft 390 kts 65°
2026-05-01 09:28 48.42888 1.08096 14699 ft 393 kts 65°
2026-05-01 09:29 48.45401 1.15431 13958 ft 394 kts 65°
2026-05-01 09:29 48.46654 1.19085 13567 ft 392 kts 65°
2026-05-01 09:30 48.49135 1.26330 12916 ft 381 kts 65°
2026-05-01 09:30 48.50324 1.29803 12652 ft 366 kts 65°
2026-05-01 09:30 48.52559 1.36333 12191 ft 340 kts 65°
2026-05-01 09:31 48.53627 1.39440 11962 ft 327 kts 65°
2026-05-01 09:31 48.54729 1.42376 11742 ft 318 kts 57°
2026-05-01 09:31 48.57867 1.46833 11218 ft 305 kts 41°
2026-05-01 09:32 48.59507 1.48837 10833 ft 302 kts 41°
2026-05-01 09:32 48.62745 1.52785 10069 ft 297 kts 41°
2026-05-01 09:32 48.64345 1.54742 9615 ft 295 kts 41°
2026-05-01 09:33 48.65934 1.56701 9139 ft 295 kts 41°
2026-05-01 09:33 48.67521 1.58669 8701 ft 294 kts 41°
2026-05-01 09:33 48.70656 1.62574 7873 ft 290 kts 41°
2026-05-01 09:34 48.72207 1.64508 7460 ft 288 kts 41°
2026-05-01 09:34 48.73749 1.66431 7249 ft 287 kts 41°
2026-05-01 09:34 48.76834 1.70284 7224 ft 287 kts 41°
2026-05-01 09:35 48.78372 1.72205 7131 ft 284 kts 41°
2026-05-01 09:35 48.81390 1.75978 6341 ft 281 kts 41°
2026-05-01 09:35 48.82888 1.77865 5986 ft 279 kts 41°
2026-05-01 09:36 48.84385 1.79754 5738 ft 280 kts 41°
2026-05-01 09:36 48.85881 1.81648 5551 ft 280 kts 41°
2026-05-01 09:36 48.87373 1.83546 5347 ft 279 kts 41°
2026-05-01 09:36 48.88732 1.85621 5154 ft 277 kts 55°
2026-05-01 09:37 48.89786 1.88057 5016 ft 275 kts 61°
2026-05-01 09:37 48.91705 1.93087 4993 ft 274 kts 67°
2026-05-01 09:37 48.92664 1.95596 4999 ft 276 kts 57°
2026-05-01 09:38 48.94822 2.00138 4967 ft 252 kts 57°
2026-05-01 09:38 48.95679 2.02354 4957 ft 236 kts 67°
2026-05-01 09:38 48.96259 2.04595 4932 ft 219 kts 76°
2026-05-01 09:39 48.96731 2.08757 4972 ft 182 kts 89°
2026-05-01 09:39 48.96826 2.10573 4944 ft 163 kts 89°
2026-05-01 09:39 48.96915 2.12210 4899 ft 148 kts 90°
2026-05-01 09:40 48.96998 2.13736 4894 ft 144 kts 90°
2026-05-01 09:40 48.97160 2.16772 4914 ft 145 kts 90°
2026-05-01 09:40 48.97242 2.18298 4896 ft 144 kts 90°
2026-05-01 09:41 48.97323 2.19818 4889 ft 145 kts 89°
2026-05-01 09:41 48.97486 2.22884 4708 ft 145 kts 89°
2026-05-01 09:41 48.97569 2.24406 4504 ft 144 kts 89°
2026-05-01 09:42 48.97651 2.25927 4286 ft 144 kts 89°
2026-05-01 09:42 48.97732 2.27445 4074 ft 144 kts 89°
2026-05-01 09:42 48.97896 2.30495 3693 ft 145 kts 89°
2026-05-01 09:43 48.98058 2.33534 3304 ft 144 kts 89°
2026-05-01 09:43 48.98141 2.35061 3111 ft 145 kts 88°
2026-05-01 09:43 48.98225 2.36585 2951 ft 146 kts 87°
2026-05-01 09:44 48.98406 2.39710 2535 ft 145 kts 88°
2026-05-01 09:44 48.98482 2.41243 2346 ft 145 kts 89°
2026-05-01 09:44 48.98548 2.42760 2111 ft 143 kts 88°
2026-05-01 09:45 48.98630 2.44282 1963 ft 145 kts 88°
2026-05-01 09:45 48.98792 2.47335 1577 ft 145 kts 88°
2026-05-01 09:45 48.98882 2.48856 1378 ft 143 kts 87°
2026-05-01 09:46 48.98974 2.50357 1148 ft 139 kts 88°
2026-05-01 09:46 48.99048 2.51830 990 ft 140 kts 90°
2026-05-01 09:46 48.99112 2.53295 818 ft 138 kts 87°
2026-05-01 09:46 48.99192 2.54738 637 ft 137 kts 87°
2026-05-01 09:47 48.99275 2.56177 452 ft 136 kts 88°
2026-05-01 09:47 48.99349 2.57573 368 ft 130 kts 86°
2026-05-01 09:47 48.99399 2.58612 366 ft 60 kts 85°
2026-05-01 09:47 48.99427 2.59035 362 ft 35 kts 80°
2026-05-01 09:48 48.99504 2.59372 366 ft 30 kts 66°
2026-05-01 09:48 48.99566 2.59581 365 ft 20 kts 65°
2026-05-01 09:48 48.99668 2.59683 367 ft 19 kts
2026-05-01 09:48 48.99812 2.59677 366 ft 20 kts 355°
2026-05-01 09:49 48.99938 2.59659 368 ft 18 kts 355°
2026-05-01 09:49 49.00039 2.59640 366 ft 14 kts 339°
2026-05-01 09:49 49.00078 2.59485 366 ft 20 kts 260°
2026-05-01 09:49 49.00062 2.59262 366 ft 22 kts 266°
2026-05-01 09:50 49.00049 2.59029 366 ft 14 kts 264°
2026-05-01 09:50 49.00048 2.58924 366 ft 10 kts 284°
2026-05-01 09:50 49.00104 2.58887 366 ft 8 kts
2026-05-01 09:50 49.00136 2.58939 366 ft 6 kts 90°
2026-05-01 09:51 49.00133 2.59006 367 ft 3 kts 86°
2026-05-01 09:51 49.00133 2.59011 367 ft 0 kts 85°